www.pogodaiklimat.ru

Погода и климат >> Архив погоды >> Австралия >> Западная Австралия >> Леонора аэропорт


ПОГОДА в Леонора аэропорту

  • Прогноз погоды в Леонора аэропорту
  • Монитор погоды в Леонора аэропорту

АРХИВ ПОГОДЫ в Леонора аэропорту

Время (UTC), дата Ветер
(напр.,м/с)
 
Видим.   Явления Облачность Т
(С)
Тd
(С)
f
(%)
Тe
(С)
Тes
(С)
Комфортность P
(гПа)
Po
(гПа)
Тmin
(С)
Tmax
(С)
R
(мм)
R24
(мм)
S
(см)
16 9.06 СЗ 3 н/о н/о +8.9 +3.9 71 +7 +7 1014.7 971.1
18 9.06 СЗ 4 н/о н/о +8.6 +4.2 74 +6 +6 1013.9 970.4
19 9.06 С 4 н/о н/о +8.5 +4.1 74 +5 +5 1013.7 970.2
21 9.06 С 5 н/о н/о +7.9 +3.9 76 +4 +4 1013.4 969.9
22 9.06 С 5 н/о н/о +7.7 +3.9 77 +4 +4 1013.5 970.0
00 10.06 СЗ 6 н/о н/о +10.4 +4.5 67 +7 +7 1014.1 970.6
01 10.06 СЗ 7 н/о н/о +13.3 +5.5 59 +11 +11 1014.0 970.5 +7.2
03 10.06 СЗ 10 н/о н/о +16.4 +5.4 48 +15 +15 1012.9 969.4
04 10.06 СЗ 9 н/о н/о +17.0 +5.0 45 +16 +16 1011.4 968.0
06 10.06 СЗ 9 н/о н/о +18.7 +4.1 38 +18 +18 1009.7 966.3
07 10.06 СЗ 8 н/о н/о +19.1 +4.1 37 +19 +19 1009.0 965.7
09 10.06 СЗ 7 н/о н/о +17.9 +4.5 41 +17 +17 1008.9 965.6
10 10.06 СЗ 5 н/о н/о +16.6 +4.6 45 +16 +16 1009.1 965.8
12 10.06 С 5 н/о н/о +15.2 +5.1 51 +14 +14 1009.6 966.2
13 10.06 СЗ 7 н/о н/о +15.0 +5.2 52 +13 +13 1009.7 966.3 +19.7
15 10.06 С 7 н/о н/о +14.9 +5.4 53 +13 +13 1009.0 965.7
16 10.06 С 8 н/о н/о +14.9 +5.1 52 +13 +13 1008.5 965.2
18 10.06 З 9 н/о н/о +13.3 +8.0 70 +10 +10 1009.4 966.1
19 10.06 ЮЗ 5 9000 м 10/10 300 м
[]
+9.6 +7.9 89 +6 +6 1010.6 967.2
21 10.06 СЗ 4 н/о н/о +10.8 +6.6 75 +9 +9 1011.1 967.7
22 10.06 СЗ 3 н/о 10/10 1500 м
[]
+10.7 +5.9 72 +9 +9 1011.0 967.6
00 11.06 СЗ 5 н/о н/о +10.8 +5.8 71 +8 +8 1013.0 969.5
01 11.06 СЗ 5 н/о 10/10 1500 м
[]
+11.4 +6.1 70 +9 +9 1013.9 970.4 +9.6
03 11.06 З 7 н/о н/о +13.0 +4.7 57 +11 +11 1013.8 970.3
04 11.06 З 7 н/о 10/10 1000 м
[]
+13.6 +4.7 55 +11 +11 1013.4 969.9
06 11.06 СЗ 7 н/о н/о +14.0 +4.6 53 +12 +12 1012.6 969.1
07 11.06 З 7 н/о 9/0
[]
+14.3 +4.0 50 +12 +13 1013.2 969.7
09 11.06 З 7 н/о н/о +13.9 +4.5 53 +12 +12 1014.3 970.7
10 11.06 З 6 н/о 6/0
[]
+13.0 +5.2 59 +11 +11 1015.8 972.2
12 11.06 СЗ 4 н/о н/о +12.0 +5.9 66 +10 +10 1018.0 974.3
13 11.06 СЗ 3 н/о н/о +10.4 +5.6 72 +9 +9 1018.2 974.5 +15.4
15 11.06 СЗ 4 н/о н/о +9.2 +6.1 81 +6 +6 1019.0 975.2
16 11.06 СЗ 3 н/о н/о +8.2 +5.7 84 +5 +5 1019.1 975.3
18 11.06 З 3 н/о н/о +5.9 +4.7 92 +3 +3 1019.0 975.2
19 11.06 СЗ 2 н/о н/о +5.4 +4.4 93 +3 +3 1019.2 975.4
21 11.06 СЗ 3 н/о н/о +5.2 +4.5 95 +2 +2 1020.1 976.3
22 11.06 СЗ 2 н/о н/о +4.7 +4.0 95 +2 +2 1020.9 977.1
00 12.06 СЗ 2 н/о н/о +6.6 +5.4 92 +4 +4 1023.1 979.2
01 12.06 З 3 н/о н/о +10.2 +6.4 77 +8 +8 1023.6 979.6 +4.1
03 12.06 З 4 н/о н/о +14.7 +5.8 55 +14 +14 1022.9 979.0
04 12.06 З 3 н/о н/о +15.9 +4.3 46 +16 +16 1022.2 978.3
06 12.06 З 3 н/о н/о +17.8 +5.1 43 +18 +18 1020.8 977.0
07 12.06 СЗ 5 н/о 1/1 1500 м
[]
+17.4 +3.7 40 +17 +18 1020.6 976.8
09 12.06 З 3 н/о н/о +15.9 +4.3 46 +16 +16 1021.0 977.2
10 12.06 З 2 н/о 10/10 1500 м
[]
+15.0 +4.1 48 +15 +15 1021.9 978.0
12 12.06 З 2 н/о н/о +11.9 +3.4 56 +12 +12 1023.3 979.4
13 12.06 штиль 0 н/о н/о +9.8 +3.3 64 +9 +9 1023.3 979.4 +18.2
15 12.06 штиль 0 н/о н/о +10.8 +4.5 65 +10 +10 1023.0 979.1
16 12.06 штиль 0 н/о 10/10 1500 м
[]
+11.0 +5.1 67 +11 +11 1022.8 978.9
18 12.06 З 1 н/о н/о +11.1 +5.0 66 +11 +11 1022.9 979.0
19 12.06 штиль 0 н/о 10/10 1500 м
[]
+11.4 +5.3 66 +11 +11 1022.4 978.5
21 12.06 З 2 н/о н/о +10.9 +5.4 69 +10 +10 1022.5 978.6
22 12.06 СВ 1 н/о 10/10 1500 м
[]
+10.8 +6.0 72 +12 +12 1022.6 978.7
00 13.06 СЗ 1 н/о н/о +10.0 +6.2 77 +11 +11 1024.3 980.3
01 13.06 ЮЗ 1 н/о н/о +12.1 +6.8 70 +13 +13 1025.1 981.1 +6.6
03 13.06 ЮЗ 3 н/о н/о +15.7 +2.5 41 +16 +16 1024.7 980.7
04 13.06 З 4 н/о 9/9 1500 м
[]
+16.8 +1.7 36 +16 +17 1023.8 979.8
06 13.06 ЮЗ 4 н/о н/о +17.0 +1.0 34 +17 +17 1022.0 978.1
07 13.06 З 3 н/о 6/0
[]
+16.8 +0.9 34 +17 +19 1022.0 978.1
09 13.06 ЮЗ 2 н/о н/о +15.1 +1.6 40 +15 +15 1022.5 978.6
10 13.06 ЮЗ 3 н/о 1/1 1500 м
[]
+13.0 +1.7 46 +12 +12 1023.0 979.1
12 13.06 штиль 0 н/о н/о +8.8 +1.5 60 +8 +8 1023.9 979.9
13 13.06 штиль 0 н/о 1/1 1500 м
[]
+7.9 +1.7 65 +7 +7 1024.1 980.1 +17.7
15 13.06 штиль 0 н/о н/о +6.5 +1.6 71 +6 +6 1023.9 979.9
16 13.06 штиль 0 н/о н/о +5.3 +1.1 74 +5 +5 1023.8 979.8
18 13.06 штиль 0 н/о н/о +3.8 +0.1 77 +3 +3 1023.4 979.5
19 13.06 штиль 0 н/о н/о +3.3 +0.2 80 +2 +2 1023.6 979.6
21 13.06 СЗ 2 н/о н/о +2.6 -0.3 81 0 0 1023.4 979.5
22 13.06 С 1 н/о н/о +2.3 -0.1 84 +1 +1 1023.6 979.6
00 14.06 штиль 0 н/о н/о +7.4 +2.1 69 +7 +7 1024.7 980.7
01 14.06 штиль 0 н/о н/о +10.4 +2.5 58 +10 +10 1024.8 980.8 +2.2
03 14.06 З 1 н/о н/о +15.9 +2.0 39 +17 +17 1024.4 980.4
04 14.06 С 2 н/о н/о +16.2 +1.1 36 +17 +17 1023.2 979.3
06 14.06 З 3 н/о н/о +17.6 +1.2 33 +18 +18 1021.5 977.6
07 14.06 З 2 н/о н/о +18.1 +1.2 32 +19 +19 1021.5 977.6
09 14.06 З 3 н/о н/о +16.5 +1.4 36 +17 +17 1021.3 977.4
10 14.06 Ю 2 н/о н/о +13.8 +1.5 43 +14 +14 1021.7 977.8
12 14.06 штиль 0 н/о н/о +11.1 +1.6 52 +11 +11 1023.0 979.1
13 14.06 штиль 0 н/о 1/1 1500 м
[]
+9.7 +1.4 56 +9 +9 1023.0 979.1 +18.4
15 14.06 штиль 0 н/о н/о +6.8 +0.9 66 +6 +6 1022.9 979.0
16 14.06 штиль 0 н/о н/о +5.8 +0.4 68 +5 +5 1023.2 979.3
18 14.06 штиль 0 н/о н/о +6.0 +1.3 72 +5 +5 1023.0 979.1
19 14.06 штиль 0 н/о 10/0 2000 м
[]
+7.7 +1.5 65 +7 +7 1022.8 978.9
21 14.06 СЗ 2 н/о н/о +8.9 +2.5 64 +7 +7 1023.1 979.2
22 14.06 СЗ 2 н/о 6/0 2000 м
[]
+8.1 +2.4 67 +6 +6 1023.8 979.8
00 15.06 З 3 н/о н/о +8.6 +2.4 65 +7 +7 1024.8 980.8
01 15.06 З 3 н/о н/о +12.4 +4.9 60 +11 +11 1025.6 981.6 +5.2
03 15.06 ЮЗ 3 н/о н/о +16.6 +7.3 54 +17 +17 1025.0 981.0
04 15.06 З 5 н/о 6/6 1000 м
[]
+17.3 +6.5 49 +17 +19 1024.1 980.1
06 15.06 ЮЗ 4 н/о н/о +18.7 +4.5 39 +19 +19 1023.1 979.2
07 15.06 Ю 4 н/о н/о +18.7 +4.1 38 +19 +19 1023.1 979.2
09 15.06 Ю 3 н/о н/о +16.9 +2.5 38 +17 +17 1023.2 979.3
10 15.06 Ю 3 н/о н/о +14.3 +2.9 46 +14 +14 1023.9 979.9
12 15.06 Ю 4 н/о н/о +12.7 +3.6 54 +11 +11 1025.3 981.3
13 15.06 Ю 4 н/о н/о +11.5 +4.3 61 +10 +10 1025.5 981.5 +19.6
15 15.06 ЮВ 2 н/о н/о +8.8 +4.2 73 +7 +7 1025.7 981.7
16 15.06 ЮВ 3 н/о н/о +8.5 +4.7 77 +6 +6 1025.3 981.3
18 15.06 штиль 0 н/о н/о +6.1 +3.4 83 +5 +5 1025.1 981.1
19 15.06 штиль 0 н/о н/о +4.3 +2.0 85 +3 +3 1025.2 981.2
21 15.06 штиль 0 н/о н/о +3.4 +1.9 90 +2 +2 1025.6 981.6
22 15.06 штиль 0 н/о н/о +2.9 +1.1 88 +2 +2 1025.7 981.7
00 16.06 штиль 0 н/о н/о +6.3 +2.4 76 +6 +6 1027.0 982.9
01 16.06 СВ 2 н/о н/о +11.1 +5.6 69 +10 +10 1027.1 983.0 +2.4
03 16.06 В 1 н/о н/о +14.2 +5.0 54 +15 +15 1026.6 982.5
04 16.06 В 2 н/о н/о +15.9 +4.6 47 +16 +16 1025.6 981.6
06 16.06 З 4 н/о н/о +17.7 +2.1 35 +18 +18 1023.7 979.7
07 16.06 З 3 н/о н/о +18.1 +2.4 35 +18 +18 1023.4 979.5
09 16.06 СЗ 4 н/о н/о +16.0 +3.1 42 +15 +15 1023.9 979.9
10 16.06 ЮЗ 2 н/о 8/0
[]
+14.3 +2.9 46 +14 +14 1024.7 980.7
12 16.06 штиль 0 н/о н/о +12.7 +3.1 52 +13 +13 1025.6 981.6
13 16.06 Ю 1 н/о 5/0
[]
+12.1 +2.8 53 +12 +12 1025.9 981.8 +18.7
15 16.06 Ю 3 н/о н/о +10.3 +2.9 60 +9 +9 1026.0 981.9
16 16.06 Ю 2 н/о 6/0
[]
+9.1 +2.9 65 +8 +8 1025.4 981.4

 

Местоположение метеостанции Леонора аэропорт (Западная Австралия, Австралия): широта -28.88 долгота 121.32 высота над уровнем моря 370 м.

В архиве по умолчанию представлена погода в Леонора аэропорту за последнюю неделю. Архивные данные за месяц целиком и за предыдущие месяцы, начиная с января 2011 года, Вы можете получить, выбрав интересующий диапазон дат из раскрывающегося списка и нажав кнопку "Ввод!".


*Определитесь, кто Вы:
робот инопланетянин человек

Внимание! Время в таблицах - всемирное. Для получения местного времени необходимо прибавить поправку, которая равна 8 ч.

Смотрите также архив погоды в соседних городах и на ближайших метеорологических станциях:

Погода в Лавертоне (Западная Австралия, Австралия) (110 км)
Погода в Леинстере (Западная Австралия, Австралия) (130 км)
Погода в Калгурли-Боулдере (Западная Австралия, Австралия) (212 км)
Погода в Саутерн Кросс (Западная Австралия, Австралия) (323 км)
Погода в Маунт Магнет аэропорту (Западная Австралия, Австралия) (352 км)
Погода в Микатарре (Западная Австралия, Австралия) (372 км)
Погода в Норсмане (Западная Австралия, Австралия) (374 км)
Погода в Салмон Гамс (Западная Австралия, Австралия) (457 км)
Погода в Дауоллину (Западная Австралия, Австралия) (476 км)
Погода в Кандердине (Западная Австралия, Австралия) (498 км)

Пояснения к столбцам:

Ветер - указаны скорость ветра в м/с - средняя за 10 мин, порывы в срок и между сроками (в фигурных скобках) и направление, откуда дует ветер: С - северный, СВ - северо-восточный, В - восточный, ЮВ - юго-восточный, Ю - южный, ЮЗ - юго-западный, З - западный, СЗ - северо-западный.
Видимость - горизонтальная дальность видимости в метрах или километрах. При видимости от 1 до 10 км при отсутствии осадков обычно наблюдается дымка, при ухудшении видимости до 1 км и менее - туман. В сухую погоду видимость может ухудшаться дымом, пылью или мглою.
Явления - указаны атмосферные явления, наблюдавшиеся в срок или в последний час перед сроком; фигурными скобками обозначены явления, наблюдавшиеся между сроками (за 1-3 часа до срока); квадратными скобками обозначены град или гололедные отложения с указанием их диаметра в мм.
Облачность - указаны через наклонную черту общая и нижняя облачность в баллах и высота нижней границы облаков в метрах; квадратными скобками обозначены формы облаков: Ci - перистые, Cs - перисто-слоистые, Cc - перисто-кучевые, Ac - высококучевые, As - высокослоистые, Sc - слоисто-кучевые, Ns - слоисто-дождевые, Cu - кучевые, Cb - кучево-дождевые. Подробнее классификацию облаков см. в Атласе облаков (PDF).
T - Температура воздуха - температура, измеренная на высоте 2 м над землей.
Td - Температура точки росы - температура, при понижении до которой содержащийся в воздухе водяной пар достигнет насыщения.
f - Относительная влажность воздуха - влажноcть воздуха, измеренная на высоте 2 м над землей.
Te - Эффективная температура - температура, которую ощущает одетый по сезону человек в тени. Характеристика душности погоды. При расчете учитывается влияние влажности воздуха и скорости ветра на теплоощущения человека.
Tes - Эффективная температура на солнце - температура, которую ощущает человек, с поправкой на солнечный нагрев. Характеристика знойности погоды. Зависит от высоты солнца над горизонтом, облачности и скорости ветра. Ночью, в пасмурную погоду, а также при ветре 12 м/с и более поправка равна нулю.
P - Атмосферное давление - приведенное к уровню моря атмосферное давление.
Po - Атмосферное давление - измеренное на уровне метеостанции атмосферное давление.
Tmin - Минимальная температура - минимум температуры воздуха на высоте 2 м над землей.
Tmax - Максимальная температура - максимум температуры воздуха на высоте 2 м над землей.
R - Количество осадков - Количество выпавших осадков за период времени, мм. При наведении курсора мыши на число - период времени, за который выпало указанное количество осадков.
R24 - Количество осадков - Количество выпавших осадков за 24 часа, мм.
S - Снежный покров - Высота снежного покрова, см. При наведении курсора мыши на число - состояние снежного покрова и степень покрытия местности в баллах.